TimeCET,TemperatureF,Dew PointF,Humidity,Sea Level PressureIn,VisibilityMPH,Wind Direction,Wind SpeedMPH,Gust SpeedMPH,PrecipitationIn,Events,Conditions,WindDirDegrees,DateUTC
12:00 AM,33.8,30.2,87,29.92,-9999.0,SSE,5.8,-,N/A,,Clear,160,2012-10-30 23:00:00
12:30 AM,33.8,30.2,87,29.92,-9999.0,South,5.8,-,N/A,,Clear,180,2012-10-30 23:30:00
1:00 AM,32.0,28.4,87,29.92,-9999.0,East,4.6,-,N/A,,Clear,100,2012-10-31 00:00:00
1:30 AM,30.2,28.4,93,29.92,-9999.0,East,4.6,-,N/A,,Clear,100,2012-10-31 00:30:00
2:00 AM,30.2,28.4,93,29.92,6.2,East,5.8,-,N/A,,Scattered Clouds,100,2012-10-31 01:00:00
2:30 AM,32.0,28.4,87,29.92,6.2,SE,6.9,-,N/A,,Mostly Cloudy,130,2012-10-31 01:30:00
3:00 AM,32.0,30.2,93,29.92,6.2,East,4.6,-,N/A,,Mostly Cloudy,100,2012-10-31 02:00:00
3:30 AM,32.0,28.4,87,29.92,6.2,East,5.8,-,N/A,,Scattered Clouds,90,2012-10-31 02:30:00
4:00 AM,32.0,28.4,87,29.92,6.2,East,5.8,-,N/A,,Mostly Cloudy,90,2012-10-31 03:00:00
4:30 AM,32.0,30.2,93,29.92,6.2,East,6.9,-,N/A,,Mostly Cloudy,90,2012-10-31 03:30:00
5:00 AM,33.8,30.2,87,29.92,6.2,East,6.9,-,N/A,,Mostly Cloudy,90,2012-10-31 04:00:00
5:30 AM,33.8,30.2,87,29.92,6.2,ESE,6.9,-,N/A,,Mostly Cloudy,110,2012-10-31 04:30:00
6:00 AM,32.0,28.4,87,29.92,6.2,ESE,8.1,-,N/A,,Mostly Cloudy,110,2012-10-31 05:00:00
6:30 AM,33.8,30.2,87,29.92,6.2,ESE,6.9,-,N/A,,Mostly Cloudy,120,2012-10-31 05:30:00
7:00 AM,33.8,30.2,87,29.95,6.2,ESE,6.9,-,N/A,,Mostly Cloudy,120,2012-10-31 06:00:00
7:30 AM,33.8,32.0,93,29.95,5.0,East,6.9,-,N/A,,Mostly Cloudy,100,2012-10-31 06:30:00
8:00 AM,35.6,32.0,87,29.95,3.7,ESE,8.1,-,N/A,,Mostly Cloudy,110,2012-10-31 07:00:00
8:30 AM,35.6,32.0,87,29.95,5.0,ESE,8.1,-,N/A,,Mostly Cloudy,120,2012-10-31 07:30:00
9:00 AM,37.4,32.0,81,29.95,6.2,ESE,6.9,-,N/A,,Mostly Cloudy,120,2012-10-31 08:00:00
9:30 AM,39.2,32.0,75,29.98,6.2,ESE,8.1,-,N/A,,Mostly Cloudy,110,2012-10-31 08:30:00
10:00 AM,39.2,32.0,75,29.98,6.2,ESE,9.2,-,N/A,,Mostly Cloudy,110,2012-10-31 09:00:00
10:30 AM,41.0,33.8,76,29.98,6.2,ESE,9.2,-,N/A,,Mostly Cloudy,110,2012-10-31 09:30:00
11:00 AM,41.0,33.8,76,29.98,6.2,East,8.1,-,N/A,,Mostly Cloudy,100,2012-10-31 10:00:00
11:30 AM,41.0,33.8,76,29.95,6.2,East,9.2,-,N/A,,Mostly Cloudy,100,2012-10-31 10:30:00
12:00 PM,41.0,33.8,76,29.95,6.2,East,10.4,-,N/A,,Mostly Cloudy,90,2012-10-31 11:00:00
12:30 PM,42.8,33.8,70,29.95,6.2,East,10.4,-,N/A,,Mostly Cloudy,90,2012-10-31 11:30:00
1:00 PM,42.8,35.6,76,29.95,6.2,East,10.4,-,N/A,,Mostly Cloudy,90,2012-10-31 12:00:00
1:30 PM,44.6,35.6,71,29.95,6.2,East,10.4,-,N/A,,Mostly Cloudy,90,2012-10-31 12:30:00
2:00 PM,44.6,35.6,71,29.95,6.2,East,10.4,-,N/A,,Mostly Cloudy,80,2012-10-31 13:00:00
2:30 PM,44.6,37.4,76,29.95,6.2,East,10.4,-,N/A,,Mostly Cloudy,80,2012-10-31 13:30:00
3:00 PM,44.6,37.4,76,29.95,6.2,East,12.7,-,N/A,,Scattered Clouds,80,2012-10-31 14:00:00
3:30 PM,44.6,35.6,71,29.92,6.2,East,15.0,-,N/A,,Scattered Clouds,100,2012-10-31 14:30:00
4:00 PM,44.6,35.6,71,29.92,6.2,East,10.4,-,N/A,,Mostly Cloudy,100,2012-10-31 15:00:00
4:30 PM,44.6,35.6,71,29.92,6.2,East,10.4,-,N/A,,Mostly Cloudy,90,2012-10-31 15:30:00
5:00 PM,41.0,35.6,81,29.92,6.2,East,9.2,-,N/A,,Mostly Cloudy,100,2012-10-31 16:00:00
5:30 PM,41.0,35.6,81,29.92,6.2,East,9.2,-,N/A,,Scattered Clouds,90,2012-10-31 16:30:00
6:00 PM,41.0,35.6,81,29.92,6.2,East,9.2,-,N/A,,Scattered Clouds,90,2012-10-31 17:00:00
6:30 PM,41.0,35.6,81,29.92,6.2,East,8.1,-,N/A,,Scattered Clouds,80,2012-10-31 17:30:00
7:00 PM,41.0,35.6,81,29.92,6.2,East,9.2,-,N/A,,Scattered Clouds,80,2012-10-31 18:00:00
7:30 PM,39.2,33.8,81,29.92,-9999.0,East,8.1,-,N/A,,Clear,100,2012-10-31 18:30:00
8:00 PM,37.4,33.8,87,29.95,-9999.0,East,8.1,-,N/A,,Clear,100,2012-10-31 19:00:00
8:30 PM,39.2,33.8,81,29.92,-9999.0,East,9.2,-,N/A,,Clear,80,2012-10-31 19:30:00
9:00 PM,37.4,33.8,87,29.92,-9999.0,East,8.1,-,N/A,,Clear,90,2012-10-31 20:00:00
9:30 PM,39.2,32.0,75,29.92,-9999.0,East,9.2,-,N/A,,Clear,80,2012-10-31 20:30:00
10:00 PM,39.2,32.0,75,29.89,-9999.0,ENE,12.7,-,N/A,,Clear,70,2012-10-31 21:00:00
10:30 PM,39.2,30.2,70,29.89,-9999.0,ENE,12.7,-,N/A,,Clear,70,2012-10-31 21:30:00
11:00 PM,39.2,28.4,65,29.86,-9999.0,ENE,13.8,-,N/A,,Clear,70,2012-10-31 22:00:00
11:30 PM,39.2,28.4,65,29.86,-9999.0,East,15.0,-,N/A,,Clear,80,2012-10-31 22:30:00